Time,TemperatureF,DewpointF,PressureIn,WindDirection,WindDirectionDegrees,WindSpeedMPH,WindSpeedGustMPH,Humidity,HourlyPrecipIn,Conditions,Clouds,dailyrainin,SoftwareType,DateUTC
2013-08-20 00:14:00,69.3,-35.2,29.93,South,180,0.0,-999.0,1,-99.99,,,0.00,Acu-Link.com,2013-08-20 04:14:00,
2013-08-20 00:29:00,69.1,-35.4,29.92,East,90,0.0,-999.0,1,-99.99,,,0.00,Acu-Link.com,2013-08-20 04:29:00,
2013-08-20 00:44:00,68.9,-35.5,29.93,West,270,0.0,-999.0,1,-99.99,,,0.00,Acu-Link.com,2013-08-20 04:44:00,
2013-08-20 00:59:00,68.9,-35.5,29.93,South,180,0.0,-999.0,1,-99.99,,,0.00,Acu-Link.com,2013-08-20 04:59:00,
2013-08-20 01:15:00,68.9,-35.5,29.93,South,180,0.0,-999.0,1,-99.99,,,0.00,Acu-Link.com,2013-08-20 05:15:00,
2013-08-20 01:30:00,69.3,-35.2,29.93,SSW,202,0.0,-999.0,1,-99.99,,,0.00,Acu-Link.com,2013-08-20 05:30:00,
2013-08-20 01:45:00,69.3,-35.2,29.92,SSE,157,0.0,-999.0,1,-99.99,,,0.00,Acu-Link.com,2013-08-20 05:45:00,
2013-08-20 02:00:00,69.1,-35.4,29.92,East,90,0.0,-999.0,1,-99.99,,,0.00,Acu-Link.com,2013-08-20 06:00:00,
2013-08-20 02:16:00,68.9,-35.5,29.92,NW,315,0.0,-999.0,1,-99.99,,,0.00,Acu-Link.com,2013-08-20 06:16:00,
2013-08-20 02:31:00,68.9,-35.5,29.92,SW,225,0.0,-999.0,1,-99.99,,,0.00,Acu-Link.com,2013-08-20 06:31:00,
2013-08-20 02:46:00,68.7,-35.6,29.92,WNW,292,0.0,-999.0,1,-99.99,,,0.00,Acu-Link.com,2013-08-20 06:46:00,
2013-08-20 03:02:00,68.5,-35.7,29.91,West,270,0.0,-999.0,1,-99.99,,,0.00,Acu-Link.com,2013-08-20 07:02:00,
2013-08-20 03:17:00,68.7,-35.6,29.91,SSW,202,0.0,-999.0,1,-99.99,,,0.00,Acu-Link.com,2013-08-20 07:17:00,
2013-08-20 03:32:00,68.5,-35.7,29.91,SW,225,0.0,-999.0,1,-99.99,,,0.00,Acu-Link.com,2013-08-20 07:32:00,
2013-08-20 03:47:00,68.7,-35.6,29.91,SSW,202,0.0,-999.0,1,-99.99,,,0.00,Acu-Link.com,2013-08-20 07:47:00,
2013-08-20 04:03:00,68.5,-35.7,29.90,SSW,202,0.0,-999.0,1,-99.99,,,0.00,Acu-Link.com,2013-08-20 08:03:00,
2013-08-20 04:18:00,68.7,-35.6,29.91,SSW,202,0.0,-999.0,1,-99.99,,,0.00,Acu-Link.com,2013-08-20 08:18:00,
2013-08-20 04:34:00,68.7,-35.6,29.90,WNW,292,0.0,-999.0,1,-99.99,,,0.00,Acu-Link.com,2013-08-20 08:34:00,
2013-08-20 04:49:00,68.7,-35.6,29.89,South,180,0.0,-999.0,1,-99.99,,,0.00,Acu-Link.com,2013-08-20 08:49:00,
2013-08-20 05:04:00,68.7,-35.6,29.90,SSW,202,0.0,-999.0,1,-99.99,,,0.00,Acu-Link.com,2013-08-20 09:04:00,
2013-08-20 05:19:00,69.1,-35.4,29.89,SW,225,0.0,-999.0,1,-99.99,,,0.00,Acu-Link.com,2013-08-20 09:19:00,
2013-08-20 05:34:00,69.6,-35.1,29.89,West,270,0.0,-999.0,1,-99.99,,,0.00,Acu-Link.com,2013-08-20 09:34:00,
2013-08-20 05:50:00,69.4,-35.2,29.90,WSW,247,0.0,-999.0,1,-99.99,,,0.00,Acu-Link.com,2013-08-20 09:50:00,
2013-08-20 06:05:00,69.4,-35.2,29.91,West,270,0.0,-999.0,1,-99.99,,,0.00,Acu-Link.com,2013-08-20 10:05:00,
2013-08-20 06:20:00,69.3,-35.2,29.90,WSW,247,0.0,-999.0,1,-99.99,,,0.00,Acu-Link.com,2013-08-20 10:20:00,
2013-08-20 06:35:00,69.4,-35.2,29.91,West,270,0.0,-999.0,1,-99.99,,,0.00,Acu-Link.com,2013-08-20 10:35:00,
2013-08-20 06:50:00,69.6,-35.1,29.91,SW,225,0.0,-999.0,1,-99.99,,,0.00,Acu-Link.com,2013-08-20 10:50:00,
2013-08-20 07:06:00,69.6,-35.1,29.91,SW,225,0.0,-999.0,1,-99.99,,,0.00,Acu-Link.com,2013-08-20 11:06:00,
2013-08-20 07:21:00,69.6,-35.1,29.91,West,270,0.0,-999.0,1,-99.99,,,0.01,Acu-Link.com,2013-08-20 11:21:00,
2013-08-20 07:36:00,69.6,-35.1,29.92,West,270,0.0,-999.0,1,-99.99,,,0.01,Acu-Link.com,2013-08-20 11:36:00,
2013-08-20 07:52:00,70.0,-34.8,29.92,West,270,0.0,-999.0,1,-99.99,,,0.01,Acu-Link.com,2013-08-20 11:52:00,
2013-08-20 08:07:00,70.3,-34.6,29.93,West,270,0.0,-999.0,1,-99.99,,,0.01,Acu-Link.com,2013-08-20 12:07:00,
2013-08-20 08:22:00,70.7,-34.4,29.94,SSW,202,0.0,-999.0,1,-99.99,,,0.01,Acu-Link.com,2013-08-20 12:22:00,
2013-08-20 08:38:00,71.1,-34.2,29.93,NNW,337,0.0,-999.0,1,-99.99,,,0.01,Acu-Link.com,2013-08-20 12:38:00,
2013-08-20 08:53:00,71.2,-34.1,29.94,WSW,247,0.0,-999.0,1,-99.99,,,0.01,Acu-Link.com,2013-08-20 12:53:00,
2013-08-20 09:08:00,71.4,-34.0,29.94,West,270,2.2,-999.0,1,-99.99,,,0.01,Acu-Link.com,2013-08-20 13:08:00,
2013-08-20 09:23:00,72.1,-33.6,29.94,SW,225,2.2,-999.0,1,-99.99,,,0.01,Acu-Link.com,2013-08-20 13:23:00,
2013-08-20 09:39:00,72.5,-33.3,29.95,West,270,0.0,-999.0,1,-99.99,,,0.01,Acu-Link.com,2013-08-20 13:39:00,
2013-08-20 09:54:00,73.2,-32.9,29.96,SW,225,0.0,-999.0,1,-99.99,,,0.01,Acu-Link.com,2013-08-20 13:54:00,
2013-08-20 10:09:00,73.8,-32.5,29.96,West,270,0.0,-999.0,1,-99.99,,,0.01,Acu-Link.com,2013-08-20 14:09:00,
2013-08-20 10:25:00,73.9,-32.5,29.97,NW,315,0.0,-999.0,1,-99.99,,,0.01,Acu-Link.com,2013-08-20 14:25:00,
2013-08-20 10:40:00,74.3,-32.2,29.96,West,270,0.0,-999.0,1,-99.99,,,0.01,Acu-Link.com,2013-08-20 14:40:00,
2013-08-20 10:55:00,74.3,-32.2,29.97,WNW,292,0.0,-999.0,1,-99.99,,,0.01,Acu-Link.com,2013-08-20 14:55:00,
2013-08-20 11:10:00,74.8,-31.9,29.98,North,0,0.0,-999.0,1,-99.99,,,0.01,Acu-Link.com,2013-08-20 15:10:00,
2013-08-20 11:26:00,75.0,-31.8,29.98,West,270,0.0,-999.0,1,-99.99,,,0.01,Acu-Link.com,2013-08-20 15:26:00,
2013-08-20 11:41:00,74.8,-31.9,29.99,West,270,0.0,-999.0,1,-99.99,,,0.01,Acu-Link.com,2013-08-20 15:41:00,
2013-08-20 11:56:00,75.2,-31.7,29.98,NW,315,0.0,-999.0,1,-99.99,,,0.01,Acu-Link.com,2013-08-20 15:56:00,
2013-08-20 12:11:00,76.8,-30.7,29.98,SSE,157,0.0,-999.0,1,-99.99,,,0.01,Acu-Link.com,2013-08-20 16:11:00,
2013-08-20 12:27:00,77.0,-30.6,29.98,NNE,22,0.0,-999.0,1,-99.99,,,0.01,Acu-Link.com,2013-08-20 16:27:00,
2013-08-20 12:42:00,77.4,-30.4,29.99,SW,225,0.0,-999.0,1,-99.99,,,0.01,Acu-Link.com,2013-08-20 16:42:00,
2013-08-20 12:57:00,76.1,-31.2,29.99,WNW,292,0.0,-999.0,1,-99.99,,,0.01,Acu-Link.com,2013-08-20 16:57:00,
2013-08-20 13:13:00,76.6,-30.9,29.98,SW,225,0.0,-999.0,1,-99.99,,,0.01,Acu-Link.com,2013-08-20 17:13:00,
2013-08-20 13:28:00,78.3,-29.9,29.98,ENE,67,2.7,-999.0,1,-99.99,,,0.01,Acu-Link.com,2013-08-20 17:28:00,
2013-08-20 13:43:00,78.3,-29.9,29.98,SSW,202,0.0,-999.0,1,-99.99,,,0.01,Acu-Link.com,2013-08-20 17:43:00,
2013-08-20 13:59:00,78.4,-29.8,29.97,WSW,247,0.0,-999.0,1,-99.99,,,0.01,Acu-Link.com,2013-08-20 17:59:00,
2013-08-20 14:14:00,79.2,-29.3,29.96,WNW,292,1.1,-999.0,1,-99.99,,,0.01,Acu-Link.com,2013-08-20 18:14:00,
2013-08-20 14:29:00,78.3,-29.9,29.96,WSW,247,1.1,-999.0,1,-99.99,,,0.01,Acu-Link.com,2013-08-20 18:29:00,
2013-08-20 14:44:00,77.9,-30.1,29.96,SW,225,1.7,-999.0,1,-99.99,,,0.01,Acu-Link.com,2013-08-20 18:44:00,
2013-08-20 15:00:00,78.6,-29.7,29.95,WSW,247,1.1,-999.0,1,-99.99,,,0.01,Acu-Link.com,2013-08-20 19:00:00,
2013-08-20 15:15:00,77.5,-30.3,29.94,West,270,1.1,-999.0,1,-99.99,,,0.01,Acu-Link.com,2013-08-20 19:15:00,
2013-08-20 15:30:00,78.4,-29.8,29.93,SW,225,0.0,-999.0,1,-99.99,,,0.01,Acu-Link.com,2013-08-20 19:30:00,
2013-08-20 15:46:00,79.0,-29.4,29.92,SW,225,3.7,-999.0,1,-99.99,,,0.01,Acu-Link.com,2013-08-20 19:46:00,
2013-08-20 16:01:00,80.4,-28.6,29.92,West,270,2.2,-999.0,1,-99.99,,,0.01,Acu-Link.com,2013-08-20 20:01:00,
2013-08-20 16:16:00,80.8,-28.4,29.91,SW,225,2.2,-999.0,1,-99.99,,,0.01,Acu-Link.com,2013-08-20 20:16:00,
2013-08-20 16:31:00,81.7,-27.8,29.91,WNW,292,2.2,-999.0,1,-99.99,,,0.01,Acu-Link.com,2013-08-20 20:31:00,
2013-08-20 16:46:00,82.9,-27.1,29.91,NE,45,0.0,-999.0,1,-99.99,,,0.01,Acu-Link.com,2013-08-20 20:46:00,
2013-08-20 17:02:00,81.9,-27.7,29.91,WNW,292,0.0,-999.0,1,-99.99,,,0.01,Acu-Link.com,2013-08-20 21:02:00,
2013-08-20 17:17:00,81.1,-28.2,29.91,West,270,0.0,-999.0,1,-99.99,,,0.01,Acu-Link.com,2013-08-20 21:17:00,
2013-08-20 17:32:00,81.7,-27.8,29.91,West,270,1.7,-999.0,1,-99.99,,,0.01,Acu-Link.com,2013-08-20 21:32:00,
2013-08-20 17:48:00,81.5,-27.9,29.91,West,270,2.2,-999.0,1,-99.99,,,0.01,Acu-Link.com,2013-08-20 21:48:00,
2013-08-20 18:03:00,81.7,-27.8,29.91,NW,315,0.0,-999.0,1,-99.99,,,0.01,Acu-Link.com,2013-08-20 22:03:00,
2013-08-20 18:18:00,81.5,-27.9,29.90,WNW,292,0.0,-999.0,1,-99.99,,,0.01,Acu-Link.com,2013-08-20 22:18:00,
2013-08-20 18:33:00,79.9,-28.9,29.91,West,270,0.0,-999.0,1,-99.99,,,0.01,Acu-Link.com,2013-08-20 22:33:00,
2013-08-20 18:48:00,79.7,-29.0,29.91,North,0,1.1,-999.0,1,-99.99,,,0.01,Acu-Link.com,2013-08-20 22:48:00,
2013-08-20 19:03:00,79.0,-29.4,29.91,West,270,0.0,-999.0,1,-99.99,,,0.01,Acu-Link.com,2013-08-20 23:03:00,
2013-08-20 19:19:00,78.6,-29.7,29.91,West,270,0.0,-999.0,1,-99.99,,,0.01,Acu-Link.com,2013-08-20 23:19:00,
2013-08-20 19:34:00,78.1,-30.0,29.92,West,270,0.0,-999.0,1,-99.99,,,0.01,Acu-Link.com,2013-08-20 23:34:00,
2013-08-20 19:49:00,77.2,-30.5,29.92,WSW,247,0.0,-999.0,1,-99.99,,,0.01,Acu-Link.com,2013-08-20 23:49:00,
2013-08-20 20:05:00,76.5,-30.9,29.92,West,270,0.0,-999.0,1,-99.99,,,0.01,Acu-Link.com,2013-08-21 00:05:00,
2013-08-20 20:20:00,75.7,-31.4,29.92,NNW,337,0.0,-999.0,1,-99.99,,,0.01,Acu-Link.com,2013-08-21 00:20:00,
2013-08-20 20:35:00,74.8,-31.9,29.93,NNW,337,0.0,-999.0,1,-99.99,,,0.01,Acu-Link.com,2013-08-21 00:35:00,
2013-08-20 20:50:00,74.1,-32.4,29.93,WNW,292,0.0,-999.0,1,-99.99,,,0.01,Acu-Link.com,2013-08-21 00:50:00,
2013-08-20 21:06:00,73.8,-32.5,29.94,West,270,0.0,-999.0,1,-99.99,,,0.01,Acu-Link.com,2013-08-21 01:06:00,
2013-08-20 21:21:00,73.4,-32.8,29.94,SW,225,0.0,-999.0,1,-99.99,,,0.01,Acu-Link.com,2013-08-21 01:21:00,
2013-08-20 21:36:00,72.9,-33.1,29.94,North,0,0.0,-999.0,1,-99.99,,,0.01,Acu-Link.com,2013-08-21 01:36:00,
2013-08-20 21:51:00,72.7,-33.2,29.95,SW,225,0.0,-999.0,1,-99.99,,,0.01,Acu-Link.com,2013-08-21 01:51:00,
2013-08-20 22:07:00,72.5,-33.3,29.96,SE,135,0.0,-999.0,1,-99.99,,,0.01,Acu-Link.com,2013-08-21 02:07:00,
2013-08-20 22:22:00,72.5,-33.3,29.96,WSW,247,0.0,-999.0,1,-99.99,,,0.01,Acu-Link.com,2013-08-21 02:22:00,
2013-08-20 22:37:00,72.5,-33.3,29.98,West,270,0.0,-999.0,1,-99.99,,,0.01,Acu-Link.com,2013-08-21 02:37:00,
2013-08-20 22:53:00,72.3,-33.4,29.98,WNW,292,0.0,-999.0,1,-99.99,,,0.01,Acu-Link.com,2013-08-21 02:53:00,
2013-08-20 23:08:00,72.5,-33.3,29.99,West,270,0.0,-999.0,1,-99.99,,,0.01,Acu-Link.com,2013-08-21 03:08:00,
2013-08-20 23:23:00,72.5,-33.3,29.99,NE,45,0.0,-999.0,1,-99.99,,,0.01,Acu-Link.com,2013-08-21 03:23:00,
2013-08-20 23:39:00,72.5,-33.3,29.98,WSW,247,0.0,-999.0,1,-99.99,,,0.01,Acu-Link.com,2013-08-21 03:39:00,
2013-08-20 23:54:00,72.5,-33.3,29.98,NNE,22,0.0,-999.0,1,-99.99,,,0.01,Acu-Link.com,2013-08-21 03:54:00,